Temp
-11 -11 -11 -10 -10 -9 -9 -9 -9 -8 -8 -10 -10 -11 -9 -9 -9 -9 -10 -10 -10 -10 -10 -10 -10 -10 -10 -10 -10 -10 -10 -10 -10 -10 -10 -10 -10 -10 -11 -11 -11 -11 -11 -11 -11 -11 -11 -11 -12
-11 -11 -11 -11 -10 -9 -8 -9 -9 -8 -9 -10 -10 -10 -10 -10 -10 -10 -11 -10 -10 -10 -10 -10 -10 -10 -11 -11 -11 -11 -11 -11 -11 -11 -11 -11 -11 -11 -11 -11 -11 -11 -11 -11 -11 -11 -11 -11 -12
-10 -11 -11 -10 -10 -9 -9 -9 -8 -9 -9 -10 -11 -10 -10 -10 -10 -10 -10 -10 -10 -11 -11 -11 -11 -11 -12 -12 -12 -12 -12 -12 -12 -11 -11 -11 -11 -12 -12 -11 -11 -11 -11 -11 -11 -11 -11 -11 -11
-10 -10 -11 -10 -10 -9 -9 -10 -9 -9 -9 -9 -11 -11 -10 -10 -10 -10 -10 -11 -11 -11 -11 -11 -11 -12 -12 -12 -12 -12 -12 -12 -12 -12 -11 -11 -11 -11 -12 -11 -11 -11 -11 -12 -12 -12 -13 -13 -13
-10 -11 -11 -10 -10 -10 -9 -10 -10 -10 -9 -10 -10 -11 -11 -11 -10 -11 -11 -11 -11 -11 -12 -12 -12 -12 -12 -12 -12 -12 -12 -12 -12 -12 -12 -12 -12 -12 -12 -12 -12 -13 -13 -13 -13 -13 -14 -13 -13
-11 -10 -10 -11 -11 -9 -10 -11 -11 -10 -10 -10 -11 -12 -11 -10 -11 -11 -10 -11 -11 -12 -12 -12 -12 -12 -12 -13 -12 -12 -12 -12 -13 -13 -13 -13 -13 -13 -13 -14 -14 -13 -13 -14 -14 -14 -14 -14 -14
-11 -10 -10 -11 -11 -9 -11 -12 -11 -10 -10 -11 -12 -11 -11 -11 -12 -11 -10 -11 -11 -12 -12 -12 -13 -13 -13 -13 -12 -12 -13 -13 -14 -14 -14 -14 -14 -14 -14 -14 -14 -14 -14 -14 -15 -15 -15 -14 -15
-11 -10 -12 -12 -11 -10 -11 -12 -12 -10 -11 -11 -11 -11 -11 -11 -11 -11 -11 -11 -12 -13 -13 -13 -13 -13 -13 -13 -13 -13 -14 -14 -15 -14 -15 -15 -14 -14 -15 -15 -15 -15 -15 -15 -15 -16 -15 -15 -16
-10 -10 -12 -12 -11 -11 -12 -12 -12 -11 -11 -12 -11 -11 -10 -11 -11 -11 -11 -12 -13 -13 -13 -14 -14 -13 -13 -13 -13 -14 -14 -15 -14 -14 -15 -15 -15 -15 -15 -15 -15 -15 -15 -16 -16 -16 -16 -16 -16
-10 -10 -12 -12 -12 -12 -11 -11 -12 -10 -11 -10 -10 -10 -10 -11 -11 -11 -12 -13 -13 -13 -14 -14 -14 -14 -14 -13 -14 -14 -14 -13 -13 -14 -15 -15 -15 -15 -16 -16 -16 -16 -16 -16 -16 -16 -16 -16 -16
-10 -11 -12 -11 -11 -12 -10 -11 -10 -10 -10 -10 -9 -10 -10 -11 -11 -12 -12 -13 -13 -14 -13 -13 -14 -14 -13 -13 -13 -13 -13 -14 -14 -15 -15 -15 -15 -16 -16 -16 -17 -17 -17 -17 -17 -17 -17 -18 -18
-11 -11 -11 -11 -11 -10 -10 -9 -10 -11 -10 -10 -10 -10 -11 -11 -11 -12 -13 -13 -13 -13 -13 -13 -13 -14 -14 -14 -14 -14 -13 -14 -15 -15 -15 -15 -16 -16 -17 -17 -17 -17 -18 -18 -19 -19 -19 -20 -20
-11 -10 -11 -10 -10 -10 -10 -10 -11 -11 -11 -10 -10 -10 -10 -10 -11 -12 -12 -13 -13 -13 -13 -14 -14 -14 -14 -14 -15 -14 -15 -15 -15 -16 -16 -16 -16 -17 -17 -18 -18 -19 -19 -19 -19 -20 -20 -21 -21
-11 -10 -10 -10 -10 -10 -10 -11 -11 -11 -11 -11 -10 -10 -10 -10 -11 -12 -12 -13 -13 -13 -14 -14 -15 -15 -15 -15 -15 -15 -15 -16 -16 -16 -17 -17 -17 -18 -19 -19 -19 -19 -20 -20 -21 -21 -22 -22 -23
-11 -10 -10 -10 -11 -11 -11 -11 -11 -11 -11 -11 -11 -11 -11 -11 -12 -12 -12 -13 -14 -14 -14 -14 -15 -15 -15 -15 -15 -15 -16 -16 -16 -17 -17 -18 -19 -19 -19 -20 -20 -21 -22 -23 -23 -24 -24 -24 -24
-11 -11 -11 -11 -11 -11 -11 -11 -11 -11 -11 -11 -11 -11 -12 -12 -12 -13 -14 -14 -14 -15 -15 -15 -15 -15 -15 -15 -15 -16 -16 -16 -16 -17 -18 -19 -19 -19 -20 -21 -22 -23 -24 -25 -25 -25 -26 -26 -26
-11 -12 -12 -11 -12 -11 -11 -11 -12 -12 -12 -12 -12 -12 -13 -12 -13 -14 -14 -14 -15 -15 -15 -15 -15 -15 -15 -16 -16 -16 -17 -17 -18 -19 -19 -19 -19 -20 -22 -23 -24 -25 -26 -26 -26 -26 -26 -26 -26
-11 -12 -12 -11 -12 -11 -12 -12 -13 -12 -12 -13 -13 -12 -13 -13 -14 -14 -14 -15 -15 -15 -15 -15 -15 -15 -16 -16 -16 -17 -18 -18 -19 -19 -19 -20 -21 -22 -23 -24 -25 -25 -26 -26 -26 -26 -26 -26 -26
-11 -11 -11 -12 -11 -11 -12 -13 -13 -12 -12 -13 -13 -13 -13 -13 -14 -14 -14 -15 -14 -15 -15 -15 -16 -16 -16 -17 -17 -18 -19 -19 -19 -19 -20 -21 -22 -23 -24 -25 -25 -26 -26 -26 -26 -26 -26 -26 -26
-12 -12 -12 -11 -11 -11 -12 -13 -13 -12 -13 -13 -13 -13 -13 -14 -14 -14 -14 -14 -14 -15 -15 -15 -16 -16 -17 -17 -18 -19 -19 -19 -19 -20 -21 -23 -24 -24 -24 -25 -25 -25 -25 -25 -26 -26 -26 -26 -26
-12 -12 -12 -12 -13 -12 -13 -12 -12 -13 -13 -13 -14 -14 -14 -13 -14 -14 -14 -14 -14 -15 -15 -16 -16 -16 -17 -18 -19 -19 -19 -19 -20 -22 -23 -24 -24 -24 -25 -25 -25 -25 -25 -25 -25 -25 -25 -26 -26
-11 -11 -12 -13 -13 -13 -13 -12 -13 -13 -13 -13 -12 -13 -14 -14 -14 -14 -14 -14 -14 -15 -15 -16 -16 -17 -18 -18 -19 -19 -20 -20 -20 -22 -23 -24 -24 -25 -25 -25 -25 -25 -25 -25 -25 -25 -25 -25 -25
-11 -12 -12 -13 -13 -14 -13 -13 -12 -13 -13 -13 -13 -13 -14 -14 -14 -14 -14 -14 -15 -15 -15 -16 -16 -17 -18 -19 -19 -20 -20 -20 -22 -23 -24 -24 -25 -25 -25 -25 -25 -25 -25 -25 -25 -25 -25 -25 -25
-11 -12 -13 -13 -14 -14 -13 -13 -13 -13 -13 -13 -13 -14 -14 -14 -14 -14 -14 -15 -15 -15 -15 -16 -17 -18 -19 -19 -19 -20 -20 -21 -23 -23 -24 -24 -24 -24 -24 -24 -24 -25 -25 -25 -25 -25 -25 -25 -25
-11 -12 -12 -13 -13 -14 -14 -13 -13 -13 -13 -13 -13 -14 -14 -14 -14 -14 -14 -15 -15 -16 -16 -16 -17 -19 -19 -19 -20 -20 -20 -22 -23 -24 -24 -24 -24 -24 -24 -24 -24 -24 -25 -25 -25 -25 -25 -25 -25
-12 -12 -12 -12 -12 -13 -13 -13 -13 -13 -13 -13 -14 -13 -14 -14 -14 -14 -15 -15 -15 -16 -16 -17 -19 -20 -20 -20 -20 -20 -21 -23 -23 -24 -24 -24 -24 -24 -24 -25 -25 -25 -25 -25 -25 -25 -25 -25 -25
-12 -11 -12 -13 -13 -14 -13 -13 -13 -13 -13 -13 -13 -14 -14 -14 -14 -14 -15 -15 -15 -16 -17 -18 -20 -20 -20 -20 -20 -20 -21 -23 -24 -24 -24 -24 -24 -24 -24 -24 -24 -25 -25 -25 -25 -25 -25 -25 -26
-12 -12 -13 -13 -13 -14 -14 -13 -13 -14 -14 -14 -14 -14 -14 -14 -14 -15 -15 -15 -16 -16 -17 -19 -20 -20 -20 -21 -21 -21 -22 -23 -24 -24 -24 -24 -24 -24 -24 -25 -26 -26 -25 -25 -25 -26 -26 -26 -26
-12 -13 -13 -14 -14 -14 -14 -13 -13 -13 -14 -13 -14 -14 -14 -14 -15 -15 -15 -16 -16 -17 -18 -19 -20 -20 -21 -21 -21 -21 -22 -24 -24 -24 -24 -25 -25 -25 -26 -26 -27 -27 -26 -27 -27 -26 -26 -26 -26
-13 -13 -13 -13 -14 -14 -14 -14 -14 -14 -14 -14 -14 -14 -14 -14 -15 -15 -15 -16 -16 -17 -19 -20 -20 -21 -21 -21 -21 -21 -22 -24 -24 -24 -24 -25 -25 -26 -26 -26 -26 -26 -26 -26 -27 -27 -27 -26 -26
Height
5871 5871 5871 5872 5874 5869 5871 5871 5867 5864 5867 5864 5868 5866 5867 5869 5869 5871 5866 5863 5861 5859 5857 5854 5852 5851 5848 5845 5842 5839 5836 5832 5829 5825 5821 5818 5814 5810 5807 5803 5800 5797 5793 5790 5787 5785 5782 5779 5777
5870 5870 5869 5870 5870 5867 5869 5864 5854 5863 5861 5863 5865 5867 5869 5868 5866 5864 5862 5860 5857 5855 5854 5850 5848 5845 5842 5838 5834 5831 5828 5824 5821 5817 5814 5810 5806 5802 5798 5794 5791 5788 5784 5781 5777 5774 5770 5767 5763
5868 5868 5867 5867 5868 5866 5867 5863 5862 5856 5857 5858 5861 5865 5869 5869 5866 5862 5859 5856 5853 5852 5848 5845 5842 5838 5836 5832 5829 5825 5821 5817 5813 5810 5806 5802 5798 5793 5790 5786 5782 5778 5774 5770 5766 5763 5759 5755 5751
5867 5866 5865 5865 5867 5864 5866 5862 5861 5859 5856 5853 5855 5865 5867 5866 5862 5859 5855 5852 5850 5846 5843 5839 5837 5833 5830 5827 5824 5820 5817 5812 5808 5804 5799 5794 5789 5785 5781 5776 5772 5767 5762 5758 5754 5750 5746 5743 5739
5863 5863 5863 5864 5866 5860 5859 5856 5857 5855 5849 5854 5854 5861 5861 5861 5857 5855 5851 5848 5846 5842 5838 5835 5832 5829 5825 5821 5818 5813 5809 5805 5800 5795 5790 5785 5780 5775 5769 5763 5760 5755 5751 5746 5741 5737 5734 5730 5727
5861 5861 5863 5863 5862 5858 5853 5853 5856 5854 5853 5846 5851 5858 5858 5855 5852 5849 5846 5844 5841 5837 5833 5830 5827 5823 5818 5814 5810 5806 5800 5795 5790 5785 5780 5774 5769 5764 5758 5752 5747 5742 5738 5733 5727 5723 5719 5715 5711
5858 5860 5862 5860 5856 5856 5850 5848 5851 5851 5849 5850 5854 5855 5853 5851 5847 5844 5842 5840 5836 5832 5827 5825 5821 5816 5812 5807 5803 5798 5792 5787 5782 5776 5771 5765 5758 5752 5747 5741 5735 5730 5724 5718 5714 5706 5702 5699 5696
5855 5859 5858 5857 5852 5852 5853 5851 5852 5850 5852 5853 5851 5850 5848 5846 5842 5840 5837 5834 5830 5825 5823 5819 5814 5809 5804 5800 5795 5790 5785 5779 5774 5768 5760 5753 5745 5739 5734 5728 5723 5718 5713 5708 5702 5694 5688 5683 5677
5854 5857 5857 5852 5850 5851 5851 5852 5851 5850 5849 5848 5847 5845 5843 5840 5838 5836 5832 5829 5825 5821 5818 5813 5807 5802 5797 5792 5787 5781 5777 5772 5766 5758 5753 5744 5736 5730 5723 5715 5708 5701 5697 5691 5684 5678 5672 5667 5661
5852 5853 5851 5848 5848 5847 5847 5847 5848 5849 5847 5845 5843 5840 5838 5837 5835 5832 5828 5825 5820 5817 5812 5807 5801 5796 5792 5786 5779 5774 5768 5761 5755 5748 5740 5732 5723 5716 5709 5702 5694 5686 5678 5670 5662 5656 5650 5645 5639
5851 5852 5843 5842 5844 5845 5845 5847 5847 5845 5843 5841 5840 5838 5836 5834 5829 5825 5822 5819 5815 5812 5807 5802 5797 5790 5783 5777 5768 5763 5758 5752 5744 5735 5727 5717 5709 5700 5690 5682 5673 5666 5657 5649 5641 5634 5628 5622 5616
5849 5845 5840 5841 5841 5843 5844 5844 5845 5844 5842 5840 5837 5835 5833 5828 5825 5820 5816 5813 5811 5805 5799 5793 5787 5780 5774 5767 5760 5754 5747 5739 5732 5723 5713 5705 5695 5685 5675 5665 5655 5648 5638 5630 5622 5614 5608 5601 5595
5845 5843 5840 5840 5841 5841 5842 5842 5842 5842 5840 5837 5834 5830 5827 5822 5818 5816 5814 5809 5803 5797 5791 5785 5779 5773 5768 5762 5754 5744 5738 5730 5721 5712 5701 5691 5681 5670 5660 5650 5639 5630 5620 5611 5603 5595 5587 5580 5575
5842 5842 5842 5843 5844 5842 5841 5841 5842 5839 5837 5833 5830 5826 5821 5818 5814 5811 5807 5802 5797 5791 5785 5779 5773 5767 5761 5754 5744 5737 5728 5720 5710 5699 5688 5678 5667 5656 5644 5633 5622 5612 5601 5591 5582 5574 5566 5560 5554
5841 5839 5841 5842 5842 5840 5840 5840 5838 5837 5833 5829 5825 5821 5817 5813 5810 5806 5802 5796 5790 5785 5778 5772 5767 5760 5753 5745 5738 5729 5719 5709 5699 5688 5675 5663 5651 5639 5628 5616 5604 5593 5582 5572 5564 5556 5549 5543 5537
5837 5837 5836 5837 5837 5837 5838 5838 5836 5832 5828 5824 5820 5817 5813 5811 5807 5802 5797 5791 5785 5778 5774 5768 5760 5754 5746 5736 5727 5717 5707 5697 5685 5674 5661 5649 5636 5624 5610 5597 5584 5574 5565 5556 5549 5542 5537 5531 5525
5834 5834 5833 5833 5833 5833 5832 5831 5830 5828 5826 5822 5818 5815 5812 5808 5804 5798 5793 5787 5781 5777 5771 5763 5753 5747 5738 5728 5717 5706 5695 5683 5671 5660 5649 5637 5624 5609 5594 5581 5571 5562 5554 5546 5540 5534 5528 5522 5517
5831 5830 5830 5830 5830 5828 5827 5827 5827 5825 5822 5819 5816 5813 5810 5806 5801 5795 5789 5783 5777 5773 5765 5758 5747 5740 5730 5719 5708 5695 5684 5671 5661 5649 5637 5623 5609 5595 5583 5572 5564 5556 5548 5541 5533 5526 5519 5512 5507
5826 5826 5826 5824 5824 5823 5821 5823 5824 5823 5819 5816 5813 5811 5807 5802 5797 5791 5784 5779 5774 5767 5761 5752 5741 5732 5722 5710 5699 5687 5675 5663 5650 5637 5623 5609 5597 5586 5577 5567 5558 5550 5541 5533 5526 5519 5512 5505 5498
5822 5822 5820 5821 5819 5820 5820 5821 5821 5819 5815 5812 5810 5807 5803 5797 5793 5786 5781 5775 5768 5762 5755 5746 5735 5725 5713 5702 5690 5678 5667 5653 5640 5625 5610 5599 5590 5581 5571 5561 5552 5543 5535 5527 5518 5510 5504 5497 5490
5818 5819 5816 5816 5817 5817 5818 5817 5816 5813 5812 5809 5806 5802 5798 5794 5788 5783 5778 5770 5764 5757 5749 5738 5727 5717 5705 5692 5680 5668 5656 5643 5628 5614 5603 5593 5584 5574 5565 5555 5546 5537 5529 5520 5511 5503 5495 5489 5483
5815 5816 5814 5811 5814 5813 5814 5811 5811 5809 5807 5803 5798 5798 5794 5789 5785 5778 5772 5767 5758 5750 5741 5731 5721 5709 5696 5685 5674 5663 5651 5637 5622 5610 5599 5588 5578 5569 5560 5550 5541 5532 5523 5513 5505 5496 5489 5481 5474
5813 5811 5810 5808 5808 5808 5809 5808 5805 5805 5801 5798 5795 5792 5790 5785 5780 5774 5768 5760 5752 5744 5736 5725 5713 5700 5688 5678 5667 5656 5642 5628 5615 5604 5594 5583 5574 5565 5556 5546 5537 5528 5518 5508 5499 5491 5483 5475 5468
5804 5805 5804 5805 5805 5802 5804 5805 5800 5801 5798 5794 5791 5789 5786 5781 5774 5768 5763 5755 5747 5739 5730 5718 5706 5693 5681 5672 5661 5649 5636 5622 5610 5600 5590 5580 5571 5562 5552 5543 5533 5523 5513 5503 5494 5484 5476 5467 5460
5798 5798 5798 5800 5800 5799 5801 5800 5797 5797 5793 5792 5788 5786 5782 5776 5771 5766 5758 5750 5742 5732 5723 5711 5699 5686 5676 5667 5655 5643 5629 5617 5606 5597 5587 5578 5569 5559 5549 5539 5529 5519 5509 5498 5488 5479 5471 5462 5454
5792 5793 5793 5794 5796 5796 5797 5795 5796 5793 5792 5789 5786 5783 5777 5772 5767 5761 5754 5746 5738 5727 5715 5703 5691 5682 5672 5661 5649 5636 5623 5612 5603 5594 5584 5575 5565 5556 5545 5535 5525 5515 5505 5494 5484 5474 5465 5456 5448
5786 5787 5792 5791 5792 5791 5791 5792 5793 5790 5789 5788 5784 5780 5773 5767 5762 5756 5750 5743 5734 5722 5710 5698 5688 5678 5667 5656 5644 5632 5619 5609 5600 5590 5581 5571 5562 5552 5543 5532 5522 5511 5499 5489 5479 5469 5460 5450 5441
5778 5785 5784 5784 5785 5786 5787 5788 5789 5786 5785 5784 5780 5774 5769 5764 5759 5754 5748 5739 5729 5718 5706 5695 5685 5674 5663 5652 5641 5628 5616 5606 5597 5588 5578 5569 5559 5549 5539 5528 5516 5506 5495 5484 5473 5464 5453 5443 5433
5774 5775 5777 5780 5782 5783 5784 5785 5785 5783 5782 5778 5776 5771 5766 5762 5758 5752 5746 5736 5726 5714 5703 5692 5681 5671 5660 5649 5637 5625 5613 5603 5594 5585 5576 5566 5556 5546 5534 5523 5513 5504 5493 5481 5470 5460 5448 5437 5426
5770 5772 5774 5775 5778 5778 5779 5781 5781 5780 5779 5776 5773 5768 5764 5760 5756 5750 5742 5732 5723 5712 5700 5690 5680 5670 5659 5648 5636 5624 5611 5601 5592 5583 5573 5564 5554 5543 5533 5523 5513 5503 5491 5479 5467 5454 5443 5432 5419
Wind_Speed
11 11 11 12 11 15 12 15 19 25 21 18 9 14 21 20 18 17 17 18 18 18 19 22 23 24 28 31 34 38 40 43 45 47 48 48 48 48 47 47 46 46 46 46 48 51 52 53 53
11 10 11 11 12 13 11 7 27 13 23 18 14 8 14 16 17 16 16 20 21 24 26 28 30 30 32 34 36 37 38 40 41 41 43 45 46 46 45 45 47 48 50 53 52 53 56 56 58
12 12 13 14 14 14 9 13 7 24 22 18 12 5 9 11 12 17 20 23 25 27 28 27 28 28 30 32 36 37 39 39 42 44 45 46 46 45 46 48 49 52 55 55 58 60 60 59 58
9 12 14 14 12 16 17 16 18 29 17 12 14 4 4 10 14 17 20 22 22 23 25 27 29 31 33 35 37 36 40 42 41 40 41 42 42 45 49 50 51 52 54 57 60 59 59 58 60
12 13 13 12 3 17 12 17 17 25 26 8 11 7 14 16 17 18 19 20 23 24 25 25 27 30 34 34 34 38 37 38 40 39 41 43 44 46 48 52 53 54 56 59 59 57 57 58 58
13 14 11 11 15 18 19 22 21 20 28 26 22 20 15 15 16 21 23 23 21 24 25 28 31 33 34 34 38 39 39 41 39 42 42 46 50 51 52 53 56 56 56 57 58 59 60 61 62
15 13 6 11 21 18 22 29 28 26 22 15 18 26 25 23 24 27 27 25 24 25 27 30 34 36 38 38 42 43 44 43 42 42 51 51 52 51 52 55 57 59 59 61 60 63 63 63 63
18 8 9 11 18 15 21 27 27 10 14 11 23 33 32 32 31 30 29 29 28 30 33 34 37 38 40 43 45 46 46 41 40 52 49 51 55 56 57 57 57 58 59 61 63 65 67 68 70
16 15 9 18 20 17 19 24 27 23 24 26 34 31 32 32 32 32 30 29 32 35 35 37 38 41 44 46 48 47 47 43 54 52 54 53 54 56 57 61 63 65 67 67 69 70 71 72 73
12 17 20 23 16 16 22 24 28 28 29 30 31 34 34 35 35 33 31 29 33 36 39 38 40 44 47 47 47 43 40 47 57 57 58 58 60 61 64 66 68 71 73 75 76 77 77 77 77
13 16 28 31 18 20 24 24 24 26 29 30 30 31 34 36 34 31 32 32 35 37 37 38 41 44 46 46 41 47 57 55 59 60 61 64 67 69 72 74 76 77 78 78 78 78 77 75 73
17 24 33 30 25 24 25 24 26 27 27 28 30 32 32 31 30 30 31 34 34 35 38 42 45 47 49 37 48 53 57 60 61 63 66 69 71 74 77 79 79 77 75 73 71 71 71 71 71
13 24 32 30 26 27 28 25 26 26 26 27 27 27 29 30 30 29 30 31 34 38 42 45 47 49 45 47 56 58 61 61 63 67 70 72 75 77 77 75 72 70 71 73 73 73 73 72 72
7 10 16 18 17 18 17 16 17 17 21 23 25 27 29 30 31 30 31 35 39 41 43 46 48 47 47 52 57 60 61 63 67 69 72 75 75 71 69 70 73 75 75 74 72 69 66 63 61
6 11 8 6 10 16 13 11 11 18 24 27 29 29 30 30 29 32 36 40 42 44 46 46 45 48 52 55 56 59 63 65 68 71 72 68 66 70 73 75 75 74 70 65 62 59 59 57 55
10 10 11 8 9 13 12 11 14 22 29 31 31 29 28 26 31 35 40 43 46 41 42 43 48 51 52 55 59 63 66 69 71 69 63 67 71 75 76 74 71 65 60 57 53 48 44 41 40
5 12 7 11 12 13 15 16 20 26 30 33 30 26 23 30 32 37 40 43 37 37 39 46 51 50 53 58 62 66 69 69 64 63 68 71 74 74 67 60 52 46 42 39 38 37 39 41 42
6 13 12 13 16 20 15 18 21 28 28 31 25 23 26 28 34 39 38 36 35 37 43 45 49 53 56 60 64 67 67 60 61 67 71 74 67 56 49 44 41 40 40 42 43 42 42 41 39
10 16 19 19 19 17 18 19 24 31 30 30 27 27 25 28 35 37 35 35 35 40 41 45 50 54 58 62 64 64 55 59 65 70 73 61 52 47 43 43 43 42 42 41 40 39 38 38 37
11 18 21 21 19 18 20 25 30 29 32 30 28 30 23 31 35 36 33 33 38 40 42 47 52 55 60 62 64 54 56 63 66 71 59 52 47 44 43 43 42 41 41 40 40 39 37 36 36
17 16 25 20 15 23 24 30 28 30 31 31 33 26 26 33 34 35 34 36 38 40 45 49 53 57 61 64 54 53 60 64 68 55 50 45 45 44 42 42 43 43 41 40 39 39 39 36 35
19 20 22 20 21 28 25 29 29 33 33 34 23 22 33 32 37 35 36 37 40 44 47 50 55 59 61 54 49 54 59 63 59 50 45 45 44 42 42 44 44 42 40 39 39 39 37 36 33
21 24 23 20 23 24 25 29 31 31 33 30 22 28 31 34 39 35 35 38 42 46 48 53 57 60 58 46 51 55 59 63 49 45 45 42 41 41 43 42 41 38 39 40 41 41 40 39 37
26 24 25 23 27 26 27 26 33 32 31 26 29 26 30 37 37 36 36 39 43 47 51 56 60 61 46 47 51 55 58 53 45 43 41 39 38 40 41 40 39 38 39 39 39 38 38 38 37
34 27 28 28 32 30 28 31 34 32 20 26 25 26 34 38 35 34 37 41 44 49 54 57 59 46 45 48 51 54 57 46 41 41 38 36 37 38 39 40 40 39 39 37 36 36 36 36 35
36 31 29 24 25 29 28 30 26 20 21 25 22 31 34 36 30 34 38 41 45 50 55 56 49 43 45 48 51 53 53 42 39 39 37 36 36 37 39 40 41 41 40 40 38 37 36 35 35
28 28 18 23 22 24 25 23 22 20 22 29 26 29 34 28 31 35 38 41 46 51 53 50 41 44 46 48 51 53 48 39 38 39 38 37 36 36 37 37 38 41 42 42 42 41 38 35 33
25 17 23 23 28 29 30 24 23 23 27 26 29 29 33 28 31 35 37 42 46 50 50 43 43 45 46 48 50 51 46 38 37 38 39 38 38 38 39 42 46 47 47 48 49 45 36 34 34
25 27 26 22 23 22 26 26 25 24 27 27 31 32 28 27 31 33 37 41 46 47 44 43 44 45 45 47 49 50 46 37 37 37 39 40 40 41 43 44 45 45 46 47 50 47 42 39 34
16 11 25 26 21 20 26 28 20 22 23 27 31 31 24 26 28 31 37 41 43 44 43 42 44 44 44 45 48 48 47 39 37 38 38 39 40 40 40 41 42 42 44 44 47 49 46 39 37
Wind_Direction
186 199 207 204 209 218 232 242 239 226 189 170 203 280 299 308 311 310 309 306 310 307 301 298 299 302 300 297 294 294 292 293 292 292 293 292 291 290 290 289 287 285 285 287 289 290 289 286 284
195 218 230 230 229 251 316 260 228 225 198 190 183 210 279 301 313 310 299 304 305 301 299 301 303 301 298 297 297 297 297 297 297 296 296 295 294 291 289 289 288 286 285 284 286 289 289 287 285
213 223 243 237 235 263 304 305 351 186 181 185 149 183 261 275 282 291 294 293 292 293 297 300 300 303 303 303 304 300 299 300 301 302 300 298 295 293 295 294 293 288 284 286 284 285 283 282 281
218 233 249 250 250 277 305 297 269 299 233 158 124 111 270 266 274 284 286 289 296 300 302 303 310 310 307 305 309 306 307 305 304 302 303 303 300 295 292 291 290 286 282 282 283 282 281 279 280
225 232 247 261 293 299 258 312 323 336 331 35 15 354 335 320 306 297 302 312 306 316 316 312 306 306 308 304 312 314 305 301 307 307 302 300 296 293 291 291 290 287 286 286 287 287 283 282 280
232 231 245 262 265 289 329 345 333 319 337 354 17 357 346 326 312 320 319 322 321 318 313 305 308 308 313 313 312 315 315 301 305 304 302 300 299 297 292 293 294 292 291 289 288 286 284 283 282
230 221 231 255 271 270 327 334 339 336 338 15 4 346 343 330 325 323 322 321 323 322 309 310 316 316 315 316 315 316 317 306 303 304 307 301 302 300 299 298 296 295 293 292 292 291 289 286 284
232 196 194 253 260 297 316 325 332 348 359 339 333 329 331 328 323 319 319 320 325 317 314 316 318 317 316 318 316 315 312 303 306 310 308 302 301 301 301 299 297 294 294 292 290 289 287 287 287
228 186 192 250 264 273 292 303 312 304 313 313 317 327 328 322 318 314 315 321 316 310 315 316 314 316 317 316 314 311 309 304 309 309 308 303 302 301 300 299 298 297 296 293 290 288 287 285 283
216 204 214 238 253 283 282 296 302 318 315 311 316 322 320 317 314 312 314 305 304 315 315 312 314 314 313 312 308 304 303 300 309 311 308 306 305 305 303 301 299 297 296 294 293 291 290 288 285
207 184 225 232 249 266 272 295 318 322 315 312 312 312 311 312 311 312 310 311 312 310 310 309 309 308 311 312 307 306 311 309 310 310 309 309 308 307 305 304 302 300 298 296 294 293 290 288 286
213 207 227 237 251 263 278 298 315 312 312 312 309 308 309 306 310 312 313 311 308 309 311 311 314 313 320 311 310 310 311 313 312 310 309 310 309 307 305 303 301 300 299 298 297 295 293 291 288
218 218 228 241 257 273 286 302 311 305 309 311 312 312 311 313 314 312 311 310 310 312 315 315 315 316 319 310 313 314 313 312 311 310 310 310 308 306 305 304 304 303 301 300 297 295 292 289 286
201 232 238 252 267 283 299 296 304 317 316 316 320 317 316 314 313 314 312 313 316 317 316 315 315 317 315 313 314 312 312 312 312 312 310 309 308 309 308 307 305 303 301 299 297 294 291 289 287
229 251 257 278 286 292 294 292 307 320 317 324 323 322 318 317 317 316 318 320 319 317 318 319 319 318 316 313 310 311 313 313 312 312 311 313 313 312 310 308 306 304 301 299 297 294 293 290 288
220 243 271 255 258 279 294 290 304 327 328 325 322 321 317 317 318 323 322 321 318 322 323 321 320 316 314 312 315 315 314 315 314 315 318 317 315 313 311 310 307 306 304 303 301 300 298 296 294
226 206 219 255 265 280 298 310 326 323 328 327 322 315 314 318 324 324 323 320 323 321 320 321 316 316 315 317 317 316 318 317 320 320 319 318 316 315 314 314 316 318 317 315 312 309 305 301 300
256 216 215 253 281 290 298 316 316 316 320 322 310 310 320 324 328 324 320 324 321 320 325 317 314 317 319 319 318 319 319 321 322 321 321 320 321 322 324 325 326 325 321 317 315 312 310 308 305
255 245 239 248 266 282 305 304 305 309 309 308 304 308 320 329 332 326 327 323 323 327 318 317 317 321 320 320 320 320 322 324 324 324 324 326 329 329 328 326 326 324 322 320 318 316 313 310 309
260 258 260 281 287 304 291 289 291 303 305 301 302 299 321 333 334 333 330 327 328 320 321 321 322 322 321 320 321 323 326 328 327 326 330 332 331 331 331 329 329 329 328 326 323 320 317 314 310
244 258 256 268 266 272 270 279 290 295 301 298 299 310 330 334 337 334 329 330 322 324 324 325 324 323 321 322 325 329 331 330 329 333 334 334 334 335 334 334 333 333 330 326 322 319 318 317 312
257 266 240 257 262 269 276 281 285 291 300 300 317 313 330 329 335 333 331 324 327 326 329 326 324 322 322 326 329 332 332 330 334 335 337 337 338 338 337 336 335 334 329 326 323 322 321 320 316
255 256 257 256 253 258 264 274 289 298 304 299 314 336 329 329 331 331 328 328 329 329 329 327 325 324 326 330 333 333 333 334 338 340 340 342 341 338 338 337 334 331 327 326 324 325 323 321 319
261 258 253 240 244 261 261 274 283 295 307 306 325 328 328 331 333 334 328 330 332 329 330 327 325 325 330 335 334 336 335 339 341 343 344 343 341 340 339 338 337 335 333 331 330 330 328 325 323
259 253 255 241 237 244 253 265 277 286 309 308 321 326 330 331 329 328 332 333 333 331 330 327 326 332 335 337 337 337 338 342 344 344 345 343 343 341 339 341 342 344 341 337 334 332 330 328 327
252 248 254 250 246 250 256 263 288 298 303 295 320 324 328 328 329 332 335 335 332 332 330 329 335 336 339 340 340 339 343 344 345 347 347 346 345 342 343 341 342 344 346 343 339 335 332 330 328
240 243 247 243 240 240 251 265 287 300 306 303 317 324 332 333 333 335 336 333 335 334 332 336 340 342 342 343 342 343 345 344 346 349 349 348 345 346 343 342 345 347 348 346 343 337 333 331 329
231 220 222 221 230 239 256 266 288 294 302 301 319 328 332 332 333 336 334 337 337 335 337 344 345 347 346 345 346 348 348 345 348 351 350 349 348 349 349 352 351 352 348 346 344 345 342 336 335
226 207 212 224 231 247 260 266 284 298 299 314 319 325 329 329 334 336 337 340 340 341 346 347 350 351 349 348 350 352 353 346 348 349 351 350 350 353 354 354 351 350 347 345 342 344 343 336 335
203 211 225 222 220 235 261 270 287 297 303 310 316 324 324 329 334 336 344 345 346 348 351 352 353 352 351 351 354 358 360 353 349 349 350 351 352 353 354 353 350 348 350 346 345 345 345 340 334